Regional Weather Roundup
Issued by NWS

Home | Current Version | Previous Version | Text Only | Print | Product List | Glossary Off
Versions: 1 2 3 4 5 6 7 8 9 10 11 12 13 14 15 16 17 18 19 20 21 22 23 24 25 26 27 28 29 30 31 32 33 34 35 36 37 38 39 40 41 42 43 44 45 46 47 48 49 50

000
ASUS43 KMPX 220810
RWRMN
WEATHER ROUNDUP FOR MINNESOTA
NATIONAL WEATHER SERVICE TWIN CITIES/CHANHASSEN MN
300 AM CDT MON MAY 22 2017


NOTE: "FAIR" INDICATES FEW OR NO CLOUDS BELOW 12,000 FEET WITH NO
SIGNIFICANT WEATHER AND/OR OBSTRUCTIONS TO VISIBILITY. N/A MEANS
CURRENT SKY AND/OR WEATHER CONDITIONS ARE NOT AVAILABLE.

MNZ060>063-068>070-220900-
   Twin Cities Metro

CITY           SKY/WX    TMP DP  RH WIND       PRES   REMARKS
TWIN CITIES    CLOUDY    45  40  82 W5        29.90F
ST PAUL        PTCLDY    45  42  89 CALM      29.91F
CRYSTAL        MOCLDY    46  39  76 SW7       29.88F
BLAINE         PTCLDY    46  45  93 SW5       29.89F
LAKEVILLE      MOCLDY    45  45 100 CALM      29.91F
EDEN PRAIRIE   CLOUDY    44  40  85 SW6       29.89F
SOUTH ST PAUL  PTCLDY    46  42  87 W5        29.90F
LAKE ELMO      FAIR      45  43  93 SW7       29.91S
$$
MNZ001>005-007-008-013>017-022>024-027-028-220900-
   Northwest Minnesota

CITY           SKY/WX    TMP DP  RH WIND       PRES   REMARKS
BEMIDJI        DRIZZLE   43  43  99 W7        29.78F
HALLOCK        DRIZZLE   46  45  93 W7        29.82F
ROSEAU         CLOUDY    45  41  87 NW6       29.79S
WARROAD        CLOUDY    45  41  87 W5        29.79S
THIEF RVR FALL CLOUDY    45  44  97 NW13      29.82F
CROOKSTON      LGT RAIN  45  45 100 NW14      29.85S
FOSSTON        DRIZZLE   43  43 100 W10       29.82S
DETROIT LAKES  CLOUDY    43  41  93 W9        29.86S
MOORHEAD       CLOUDY    45  41  87 W8        29.89S
PARK RAPIDS    CLOUDY    45  40  82 W13       29.81S
MAHNOMEN       DRIZZLE   43  42  93 W13       29.83F
$$
MNZ006-009>011-018-025>026-220900-
   North Central Minnesota

CITY           SKY/WX    TMP DP  RH WIND       PRES   REMARKS
BAUDETTE       CLOUDY    45  42  89 NW6       29.76R
FLAG ISLAND    CLOUDY    46  43  87 NW13      29.76S
INTL FALLS     CLOUDY    45  43  93 NW6       29.72F
WASKISH        DRIZZLE   46  43  87 W10       29.76S
BIG FORK       CLOUDY    45  43  93 W5        29.75F
LONGVILLE      CLOUDY    45  43  93 W6        29.80S
GRAND RAPIDS   CLOUDY    45  43  93 W7        29.79S
CRANE LAKE     CLOUDY    45  43  93 CALM      29.74S FOG
ORR            CLOUDY    45  41  87 W3        29.71S
COOK           CLOUDY    45  43  93 W6        29.74F
WALKER         CLOUDY    44  41  89 SW8       29.79S
$$
MNZ012-019>021-037-220900-
   Northeast Minnesota

CITY           SKY/WX    TMP DP  RH WIND       PRES   REMARKS
DULUTH         CLOUDY    45  43  93 W12       29.76S
ELY            CLOUDY    45  43  93 W6        29.72S
HIBBING        CLOUDY    43  42  97 W5        29.75S
EVELETH        CLOUDY    44  41  90 W5        29.76S
DULUTH HARBOR  CLOUDY    46  45  93 SW12      29.79R
TWO HARBORS    CLOUDY    48  45  87 W5        29.74R
SILVER BAY     CLOUDY    46  45  93 CALM      29.72S
GRAND MARAIS     N/A     39  39 100 W6        29.71S
G MARAIS ARPRT CLOUDY    43  39  87 W3        29.70S
$$
MNZ029>031-032-039>041-046>048-054>057-064-220900-
   West Central Minnesota

CITY           SKY/WX    TMP DP  RH WIND       PRES   REMARKS
FERGUS FALLS   MOCLDY    41  41 100 NW7       29.88S
WHEATON        CLEAR     43  39  87 SW5       29.91S
MORRIS         PTCLDY    43  39  87 W3        29.88F
ALEXANDRIA     PTCLDY    42  40  92 W6        29.88F
ELBOW LAKE     MOCLDY    42  40  95 NW8       29.88F
WADENA         MOCLDY    41  39  93 W6        29.84F
GLENWOOD       CLOUDY    43  41  93 SW8       29.89S
APPLETON       CLEAR     43  39  87 SW3       29.89F
BENSON         CLEAR     43  39  87 W7        29.91F
ORTONVILLE     CLEAR     43  39  87 CALM      29.89F
MADISON        CLEAR     45  43  93 CALM      29.90F
WILLMAR        FAIR      46  41  81 W5        29.91S
$$
MNZ033>034-036-042>043-049>051-058-059-220900-
   Central Minnesota

CITY           SKY/WX    TMP DP  RH WIND       PRES   REMARKS
ST CLOUD       CLEAR     40  40 100 S5        29.87F
SAUK CENTRE    FAIR      43  40  91 W8        29.88F
PAYNESVILLE    CLEAR     40  40 100 W6        29.89F
AITKIN         CLOUDY    45  43  93 SW7       29.80S
PINE RIVER     CLOUDY    45  43  93 SW5       29.85S
BRAINERD       PTCLDY    43  42  97 W10       29.84R
STAPLES        PTCLDY    43  39  87 W7        29.85S
LONG PRAIRIE   FAIR      41  39  93 SW7       29.87F
LITTLE FALLS   CLEAR     43  39  87 W7        29.86S
LITCHFIELD     CLOUDY    46  43  87 W3        29.90S
BUFFALO        PTCLDY    45  40  85 CALM      29.90F
MAPLE LAKE     PTCLDY    45  42  91 SW3       29.90S
HUTCHINSON     CLOUDY    45  42  89 W6        29.91F
$$
MNZ037-044-045-052-053-220900-
   East Central Minnesota

CITY           SKY/WX    TMP DP  RH WIND       PRES   REMARKS
PRINCETON      PTCLDY    45  43  93 SW5       29.88S
MORA           CLOUDY    43  41  93 SW5       29.86F
CAMBRIDGE      CLOUDY    46  43  87 SW6       29.85F
RUSH CITY      CLOUDY    44  42  93 SW6       29.86S
MOOSE LAKE     DRIZZLE   43  41  93 W5        29.79F
HINCKLEY       CLOUDY    45  43  93 SW8       29.84S
CLOQUET        CLOUDY    45  41  87 W8        29.78S
MCGREGOR       CLOUDY    45  43  93 SW6       29.80F
$$
MNZ071>073-080-081-089-090-097-098-220900-
   Southwest Minnesota

CITY           SKY/WX    TMP DP  RH WIND       PRES   REMARKS
MONTEVIDEO     CLEAR     45  41  87 W6        29.91S
CANBY          CLEAR     39  38  97 CALM      29.92S
MARSHALL       CLEAR     41  39  93 NE6       29.91F
REDWOOD FALLS  CLEAR     45  40  82 SW9       29.91F
OLIVIA         CLEAR     39  36  87 SW5       29.90F
PIPESTONE      MOCLDY    46  39  76 CALM      29.93F
WINDOM         CLEAR     43  41  93 S6        29.94S
WORTHINGTON    PTCLDY    45  41  86 SW9       29.93F
JACKSON        PTCLDY    43  39  87 CALM      29.94F
TRACY          CLEAR     47  44  90 SW10      29.91F
SLAYTON        PTCLDY    42  40  93 SW7       29.94F
$$
MNZ065>067-074>077-082>085-091>093-220900-
   South Central Minnesota

CITY           SKY/WX    TMP DP  RH WIND       PRES   REMARKS
MANKATO        CLEAR     44  41  89 SW5       29.93F
NEW ULM        CLEAR     43  39  87 SW6       29.92F
ST JAMES       PTCLDY    43  39  87 N3        29.95S
FAIRMONT       PTCLDY    42  40  92 S6        29.94F
GLENCOE        CLOUDY    47  44  91 SW5       29.90F
FARIBAULT      CLOUDY    45  43  93 S3        29.93S
OWATONNA       CLOUDY    45  41  87 SW7       29.93F
WASECA         PTCLDY    41  37  87 SW7       29.94F
ALBERT LEA     PTCLDY    45  43  93 SW3       29.95S
$$
MNZ078>079-086>088-094>096-220900-
   Southeast Minnesota

CITY           SKY/WX    TMP DP  RH WIND       PRES   REMARKS
ROCHESTER      CLOUDY    44  41  89 SW10      29.94S
RED WING       PTCLDY    46  39  76 W6        29.91S
STANTON        CLOUDY    47  42  83 SW6       29.91F
DODGE CENTER   CLOUDY    43  39  87 SW7       29.94S
WINONA         CLOUDY    46  41  81 W5        29.93F
AUSTIN         PTCLDY    43  39  87 SW6       29.95F
PRESTON        MOCLDY    43  39  85 SW9       29.95S
$$
ABBREVIATIONS USED IN REMARKS
   TC - TEMPERATURES IN CELSIUS
  WCI - WIND CHILL INDEX
   HX - HEAT INDEX
  VSB - VISIBILITY
$$




USA.gov is the U.S. government's official web portal to all federal, state and local government web resources and services.